SITRO-AIS 26

Last updated on Mon Jun 22 2026 00:03:49 GMT+0000 (Coordinated Universal Time)

1 59067U 24039S 26172.53203905 .00001917 00000+0 15239-3 0 9990 2 59067 95.3908 237.9751 0143389 314.0095 44.9383 14.93326491125367
UTC large
Height (km)
Speed (km/s)
/
Latitude / Longitude
Inclination (degrees)
Orbital Period (minutes)
Azimuth
Elevation
Range (km)
Doppler Factor

Next 0 passes for location: London (51.5072 / 0.1276)

No passes found over London.
SITRO-AIS 26